This is the latest recevied weather packets stored in our database for station/object DG8SF-13. If no packets are shown the sender has not sent any weather packets the latest 10 day(s).
| Time | Temp. | Humidity | Pressure | Rain* | Wind** | Luminosity | Snow |
|---|---|---|---|---|---|---|---|
| 1777482872 | 16.11° C | 28% | 1020.4 hPa | 0 mm | - | - | - |
| 1777482560 | 16.67° C | 28% | 1020.5 hPa | 0 mm | - | - | - |
| 1777482247 | 16.67° C | 28% | 1020.4 hPa | 0 mm | - | - | - |
| 1777481950 | 16.67° C | 28% | 1020.4 hPa | 0 mm | - | - | - |
| 1777481635 | 16.67° C | 28% | 1020.4 hPa | 0 mm | - | - | - |
| 1777481336 | 17.22° C | 28% | 1020.4 hPa | 0 mm | - | - | - |
| 1777481024 | 17.22° C | 28% | 1020.3 hPa | 0 mm | - | - | - |
| 1777480713 | 17.22° C | 29% | 1020.2 hPa | 0 mm | - | - | - |
| 1777480399 | 17.22° C | 28% | 1020.2 hPa | 0 mm | - | - | - |
| 1777480100 | 17.22° C | 28% | 1020.2 hPa | 0 mm | - | - | - |
| 1777479786 | 17.78° C | 27% | 1020.1 hPa | 0 mm | - | - | - |
| 1777479489 | 17.78° C | 28% | 1020 hPa | 0 mm | - | - | - |
| 1777479175 | 17.78° C | 28% | 1020 hPa | 0 mm | - | - | - |
| 1777478866 | 17.78° C | 28% | 1020 hPa | 0 mm | - | - | - |
| 1777478552 | 17.78° C | 28% | 1020 hPa | 0 mm | - | - | - |
| 1777478241 | 18.33° C | 29% | 1019.8 hPa | 0 mm | - | - | - |
| 1777477929 | 17.78° C | 27% | 1020 hPa | 0 mm | - | - | - |
| 1777477616 | 18.33° C | 27% | 1019.9 hPa | 0 mm | - | - | - |
| 1777477304 | 18.33° C | 28% | 1020 hPa | 0 mm | - | - | - |
| 1777476995 | 18.33° C | 28% | 1019.9 hPa | 0 mm | - | - | - |
| 1777476679 | 18.33° C | 28% | 1019.9 hPa | 0 mm | - | - | - |
| 1777476371 | 18.89° C | 28% | 1019.8 hPa | 0 mm | - | - | - |
| 1777476057 | 19.44° C | 29% | 1019.8 hPa | 0 mm | - | - | - |
| 1777475745 | 18.89° C | 29% | 1019.6 hPa | 0 mm | - | - | - |
| 1777475432 | 18.89° C | 29% | 1019.7 hPa | 0 mm | - | - | - |
* Rain latest hour (hover to see other rain measurements)
** Current wind speed in m/s (hover to see current wind gust speed)